Tracking 35331 objects as of 15-Sep-2026
HD Live streaming from Space Station
objects crossing your sky now

COSMOS 1408 DEB


COSMOS 1408 DEB is no longer on orbit


NORAD ID: 50770
Int'l Code: 1982-092ASW
Launch date: September 16, 1982
Source: Commonwealth of Independent States (former USSR) (CIS)
Launch site: PLESETSK MISSILE AND SPACE COMPLEX (PKMTR)
Decay date: 2023-03-07

Note: This is SATELLITE DEBRIS
Your satellite tracking list
Your tracking list is empty




NASA's NSSDC Master Catalog

Two Line Element Set (TLE):
1 50770U 82092ASW 23062.31671664  .01701843  15860-2  45159-2 0  9999
2 50770  82.5829   9.8253 0019497 172.0712 188.0875 15.94669807 66219
Source of the keplerian elements: AFSPC